Aérodrome :
LOGIN :

S'inscrire | Disclaimer

   EN    FR    IT 

 










Légende :    VFR   VFR Marginal   IFR   IFR Intensif   IFR Très Intensif
Visi : 
Plafond : 
>= 8 km
>= 3000ft
5 à 8 km
1000 à 3000 ft
1500m à 5 km
500 à 1000 ft
800 à 1500m
200 à 500 ft
< 800m
< 200 ft
Symboles :   Orages  Brouillard  Fortes neiges  Fortes précipitations  Vent > 20 kt
SIGMETs :   Divers  Orages  Givrage  Turbulence  Onde Orograph.  Cendres Volcan.







- Altitude de l'aérodrome : 876 ft
- Code IATA : MBX


LJMB - Maribor

DERNIER METAR :
  • 211800Z 17003KT CAVOK 08/02 Q1024

METARs EXPIRÉS :
  • 211730Z 19003KT CAVOK 09/02 Q1025
  • 211700Z 24001KT CAVOK 10/02 Q1025
  • 211630Z 16005KT CAVOK 12/02 Q1024
  • 211600Z 16005KT CAVOK 13/02 Q1024
  • 211530Z 15006KT CAVOK 14/02 Q1025

TAF TAF LJMB
Valide du 21 à 18h jusqu'au 22 à 18h UTC


211700Z 2118/2218 34003KT CAVOK
BECMG 2205/2208 34007KT SCT030 BKN060
TEMPO 2210/2213 36012KT
BECMG 2213/2215 03012KT
PROB40
TEMPO 2213/2216 -RA BKN040
BECMG 2216/2218 FEW040
Pas de NOTAMs connus pour ce terrain.



MET'MAP, la Météo Aéronautique d'un coup d'oeil ! - Copyright ORBIFLY Décembre 2007 - Disclaimer

ORBIFLY MET'MAP TEAM :

Programmation & Développement : Alexandra Zaïnal
Conception & Développement : Baudouin d'Aumeries
Co-Programmation & Développement : Marc-Olivier Méhu
Soutien technique & logistique : Manuel Goepfert

Contact : metmap@orbifly.com




SOURCES & CREDITS :

   NOAA